DELTA 1 R/B, 738

Orbit data source: Space-Track

DELTA 1 R/B, 738 is space debris originally from a launch on Tue, 21 Jan 1964 UTC launched from the Air Force Eastern Test Range (AFETR). Debris objects in space refer to the collection of defunct objects orbiting the Earth. Examples of debris include non-operational satellites, rocket bodies, and fragments generated from explosions, collisions, or faulty payload assembly.

Loading next visibility...
Identifier
738, 1964-003B
Orbit
Active
Last TLE update
1 week ago
Origin
Manufacturer
ABL
Mission
Spacecraft
Bus & Motor
ALTAIR, Unknown motor
Mass
24 kg wet, 24 kg dry
Launch date (UTC)
1964-01-21 (61 years ago)
Launch vehicle
Unknown
Launch site
Air Force Eastern Test Range (AFETR)
Object type
Payload
Rocket body
Debris
Shape & HBR
Cyl, 1.5 m
Radar Cross Section
0.687 m², Medium (>0.1 m² and < 1m²)

Expand to show TLE details & history

TLE from 1 week ago
0 DELTA 1 R/B
1 00738U 64003B   25119.27061301 -.00000010  00000-0  00000-0 0  9991
2 00738  46.4637  99.8399 2605209 269.8412  60.6887  7.39361500654861
Epoch: 2025-04-29T06:29Z
Definitive object data (Epoch: 2025-04-29T06:29:40.964Z)
Latitude
0.00006°
Longitude
144.94658°
Altitude
4,007.165 km
Speed
6.4 km/s
True Right ascension
06h 39m 21s
True Declination
0° 00' 00"
Sunlit
Object was in daylight at TLE epoch
Visualization TLE readout
Latitude
25.54871°
Longitude
-73.1713°
Altitude
6,459.465 km
Speed
5.129 km/s
Apparent Right ascension
17h 37m 12s
Apparent Declination
9° 30' 48"
Sunlit
Object is in daylight
Visualization observer readout
Local Sidereal Time
13:16:13
Azimuth
98.773° ESE
Elevation
25.011°
Doppler factor
1
Orbital elements
Apogee altitude
7,652.711 km
Perigee altitude
1,852.999 km
Semi-major axis
11,130.992 km
Eccentricity
0.2605209
Inclination
46.4637°
RAAN
99.8399°
Arg. of periapsis
269.8412°
True anomaly
90.22309°
Mean anomaly
60.6887°
Eccentric anomaly
75.11452°
Mean motion
1.84817 °/min
BSTAR
Unknown
Orbital period
194.79 mins
Loading maneuver chart data...
Loading SW <> Apogee altitude chart data...
Loading historical data...
Loading historical data...
Loading historical data...
Loading historical data...
Loading historical data...
Loading historical data...
Loading historical data...
Other satellites on launch #3 in the year 1964 (1964-01-21 UTC)

DELTA 1 R/B Visibility forecast

Observer location: undefined°, undefined°

Span
Click to sort rows by Start time (UTC) header in descending order
Start Az.
Max El. time (UTC)
Max El. Az.
Max El.
End time (UTC)
End Az.
8 mins2025-05-09 05:07:36.213Z98.848° ESE2025-05-09 05:07:36.213Z98.848° ESE22.895°2025-05-09 05:15:36.213Z102.296° ESE
79 mins2025-05-09 07:27:36.213Z301.083° NW2025-05-09 08:15:36.213Z231.757° WSW42.103°2025-05-09 08:46:36.213Z156.726° SSE
26 mins2025-05-09 11:25:36.213Z285.757° WNW2025-05-09 11:38:36.213Z267.335° W12.986°2025-05-09 11:51:36.213Z244.093° WSW
10 mins2025-05-09 19:49:36.213Z101.707° ESE2025-05-09 19:53:36.213Z93.155° ESE10.798°2025-05-09 19:59:36.213Z81.95° E
69 mins2025-05-09 22:52:36.213Z204.112° SW2025-05-09 23:15:36.213Z127.44° SE41.998°2025-05-10 00:01:36.213Z58.813° ENE
87 mins2025-05-10 02:21:36.213Z261.325° W2025-05-10 02:57:36.213Z350.101° N44.439°2025-05-10 03:48:36.213Z86.351° E
|